When you browse on this site, cookies collect data to enhance your experience and personalize the content and advertising you see.
Visit our Privacy Policy to learn more. By continuing to use the site, you agree to this use of cookies and data.
  • In Austria
  • List of Countries
  • For 7 days
  • Water Temperature
  • Satellite Maps
  • Weather Map
  • News
  • Weather Widgets
  • user-avatar
    Login

    Hourly Weather Faro

    Today, 24 March, Sunday

    Time Temperature Precipitation Wind Pressure Humidity
    00:00 +11°C° 0 mm 6 mps 762 mmHg 81%
    01:00 +10°C° 0 mm 6 mps 762 mmHg 81%
    02:00 +10°C° 0 mm 6 mps 762 mmHg 81%
    03:00 +10°C° 0 mm 6 mps 762 mmHg 79%
    04:00 +9°C° 0 mm 6 mps 762 mmHg 77%
    05:00 +9°C° 0 mm 6 mps 762 mmHg 73%
    06:00 +11°C° 0 mm 6 mps 762 mmHg 67%
    07:00 +14°C° 0 mm 6 mps 762 mmHg 62%
    08:00 +16°C° 0 mm 6 mps 762 mmHg 57%
    09:00 +17°C° 0 mm 6 mps 762 mmHg 54%
    10:00 +20°C° 0 mm 5 mps 762 mmHg 51%
    11:00 +21°C° 0 mm 5 mps 763 mmHg 48%
    12:00 +21°C° 0.2 mm 5 mps 762 mmHg 50%
    13:00 +21°C° 0.2 mm 4 mps 762 mmHg 51%
    14:00 +21°C° 0.2 mm 4 mps 762 mmHg 53%
    15:00 +20°C° 0.1 mm 4 mps 762 mmHg 58%
    16:00 +19°C° 0.1 mm 3 mps 762 mmHg 63%
    17:00 +18°C° 0.1 mm 3 mps 762 mmHg 68%
    18:00 +17°C° 0.1 mm 3 mps 762 mmHg 74%
    19:00 +14°C° 0.1 mm 3 mps 762 mmHg 81%
    20:00 +13°C° 0.1 mm 4 mps 763 mmHg 88%
    21:00 +12°C° 0 mm 3 mps 763 mmHg 88%
    22:00 +12°C° 0 mm 3 mps 762 mmHg 89%
    23:00 +12°C° 0 mm 3 mps 762 mmHg 90%

    Tomorrow, 25 March, Monday

    Time Temperature Precipitation Wind Pressure Humidity
    00:00 +12°C° 0 mm 3 mps 762 mmHg 89%
    01:00 +12°C° 0 mm 3 mps 762 mmHg 89%
    02:00 +11°C° 0 mm 3 mps 762 mmHg 89%
    03:00 +11°C° 0 mm 4 mps 761 mmHg 88%
    04:00 +11°C° 0 mm 4 mps 761 mmHg 86%
    05:00 +10°C° 0 mm 5 mps 761 mmHg 84%
    06:00 +12°C° 0 mm 5 mps 761 mmHg 76%
    07:00 +14°C° 0 mm 6 mps 761 mmHg 69%
    08:00 +16°C° 0 mm 6 mps 761 mmHg 61%
    09:00 +19°C° 0 mm 6 mps 761 mmHg 55%
    10:00 +21°C° 0 mm 6 mps 761 mmHg 50%
    11:00 +22°C° 0 mm 6 mps 761 mmHg 44%
    12:00 +23°C° 0 mm 6 mps 760 mmHg 42%
    13:00 +25°C° 0 mm 5 mps 759 mmHg 41%
    14:00 +25°C° 0 mm 5 mps 759 mmHg 39%
    15:00 +23°C° 0 mm 4 mps 758 mmHg 43%
    16:00 +23°C° 0 mm 4 mps 758 mmHg 47%
    17:00 +22°C° 0 mm 3 mps 758 mmHg 51%
    18:00 +20°C° 0 mm 3 mps 758 mmHg 54%
    19:00 +19°C° 0 mm 3 mps 758 mmHg 56%
    20:00 +17°C° 0 mm 3 mps 758 mmHg 59%
    21:00 +16°C° 0 mm 3 mps 758 mmHg 61%
    22:00 +16°C° 0 mm 3 mps 758 mmHg 63%
    23:00 +14°C° 0 mm 4 mps 758 mmHg 65%

    Day after tomorrow, 26 March, Tuesday

    Time Temperature Precipitation Wind Pressure Humidity
    00:00 +14°C° 0 mm 4 mps 757 mmHg 66%
    01:00 +14°C° 0 mm 4 mps 757 mmHg 67%
    02:00 +14°C° 0 mm 4 mps 757 mmHg 69%
    03:00 +13°C° 0 mm 5 mps 756 mmHg 66%
    04:00 +13°C° 0 mm 6 mps 756 mmHg 64%
    05:00 +13°C° 0 mm 6 mps 756 mmHg 61%
    06:00 +14°C° 0 mm 7 mps 756 mmHg 56%
    07:00 +16°C° 0 mm 7 mps 756 mmHg 51%
    08:00 +17°C° 0 mm 8 mps 756 mmHg 47%
    09:00 +20°C° 0 mm 7 mps 756 mmHg 43%
    10:00 +22°C° 0 mm 7 mps 756 mmHg 40%
    11:00 +23°C° 0 mm 7 mps 756 mmHg 37%
    12:00 +24°C° 0 mm 7 mps 755 mmHg 37%
    13:00 +24°C° 0 mm 8 mps 755 mmHg 38%
    14:00 +24°C° 0 mm 8 mps 754 mmHg 38%
    15:00 +23°C° 0 mm 8 mps 754 mmHg 45%
    16:00 +21°C° 0 mm 9 mps 754 mmHg 51%
    17:00 +18°C° 0 mm 9 mps 754 mmHg 58%
    18:00 +17°C° 0 mm 9 mps 755 mmHg 61%
    19:00 +16°C° 0 mm 9 mps 755 mmHg 64%
    20:00 +15°C° 0 mm 9 mps 756 mmHg 66%
    21:00 +14°C° 0 mm 10 mps 756 mmHg 65%
    22:00 +14°C° 0 mm 11 mps 756 mmHg 64%
    23:00 +14°C° 0 mm 12 mps 756 mmHg 62%

    27 March, Wednesday

    Time Temperature Precipitation Wind Pressure Humidity
    00:00 +14°C° 0 mm 11 mps 756 mmHg 64%
    01:00 +14°C° 0 mm 10 mps 757 mmHg 65%
    02:00 +13°C° 0 mm 8 mps 757 mmHg 67%
    03:00 +13°C° 0 mm 8 mps 757 mmHg 70%
    04:00 +12°C° 0 mm 8 mps 757 mmHg 73%
    05:00 +11°C° 0 mm 7 mps 758 mmHg 76%
    06:00 +12°C° 0 mm 8 mps 758 mmHg 66%
    07:00 +15°C° 0 mm 9 mps 759 mmHg 56%
    08:00 +16°C° 0 mm 10 mps 760 mmHg 46%
    09:00 +17°C° 0 mm 10 mps 760 mmHg 43%
    10:00 +18°C° 0 mm 10 mps 760 mmHg 40%
    11:00 +19°C° 0 mm 10 mps 761 mmHg 37%
    12:00 +21°C° 0 mm 10 mps 761 mmHg 38%
    13:00 +21°C° 0 mm 10 mps 760 mmHg 40%
    14:00 +21°C° 0 mm 10 mps 760 mmHg 42%
    15:00 +18°C° 0 mm 10 mps 760 mmHg 50%
    16:00 +17°C° 0 mm 10 mps 761 mmHg 57%
    17:00 +14°C° 0 mm 10 mps 761 mmHg 64%
    18:00 +15°C° 0 mm 9 mps 761 mmHg 66%
    19:00 +13°C° 0 mm 9 mps 762 mmHg 67%
    20:00 +12°C° 0 mm 9 mps 762 mmHg 69%
    21:00 +12°C° 0 mm 9 mps 763 mmHg 71%
    22:00 +12°C° 0 mm 9 mps 763 mmHg 73%
    23:00 +12°C° 0 mm 10 mps 763 mmHg 75%

    28 March, Thursday

    Time Temperature Precipitation Wind Pressure Humidity
    00:00 +12°C° 0 mm 10 mps 763 mmHg 72%
    01:00 +12°C° 0 mm 10 mps 763 mmHg 70%
    02:00 +12°C° 0 mm 10 mps 763 mmHg 68%
    03:00 +11°C° 0 mm 9 mps 763 mmHg 71%
    04:00 +10°C° 0 mm 8 mps 763 mmHg 73%
    05:00 +9°C° 0 mm 7 mps 764 mmHg 76%
    06:00 +10°C° 0 mm 7 mps 764 mmHg 70%
    07:00 +12°C° 0 mm 7 mps 764 mmHg 63%
    08:00 +14°C° 0 mm 7 mps 765 mmHg 57%
    09:00 +16°C° 0 mm 7 mps 765 mmHg 50%
    10:00 +18°C° 0 mm 7 mps 765 mmHg 44%
    11:00 +20°C° 0 mm 7 mps 764 mmHg 37%
    12:00 +21°C° 0 mm 7 mps 764 mmHg 36%
    13:00 +21°C° 0 mm 6 mps 764 mmHg 35%
    14:00 +21°C° 0 mm 6 mps 763 mmHg 35%
    15:00 +20°C° 0 mm 6 mps 763 mmHg 42%
    16:00 +19°C° 0 mm 6 mps 763 mmHg 49%
    17:00 +17°C° 0 mm 6 mps 763 mmHg 56%
    18:00 +16°C° 0 mm 5 mps 764 mmHg 67%
    19:00 +14°C° 0 mm 5 mps 764 mmHg 78%
    20:00 +12°C° 0 mm 5 mps 765 mmHg 89%
    21:00 +12°C° 0 mm 5 mps 765 mmHg 87%
    22:00 +11°C° 0 mm 6 mps 765 mmHg 85%
    23:00 +10°C° 0 mm 6 mps 765 mmHg 83%

    29 March, Friday

    Time Temperature Precipitation Wind Pressure Humidity
    00:00 +10°C° 0 mm 6 mps 765 mmHg 82%
    01:00 +10°C° 0 mm 7 mps 764 mmHg 81%
    02:00 +10°C° 0 mm 7 mps 764 mmHg 80%
    03:00 +10°C° 0 mm 7 mps 764 mmHg 81%
    04:00 +9°C° 0 mm 6 mps 765 mmHg 81%
    05:00 +9°C° 0 mm 6 mps 765 mmHg 82%
    06:00 +11°C° 0 mm 6 mps 765 mmHg 73%
    07:00 +13°C° 0 mm 6 mps 765 mmHg 63%
    08:00 +15°C° 0 mm 6 mps 765 mmHg 54%
    09:00 +17°C° 0 mm 5 mps 765 mmHg 49%
    10:00 +19°C° 0 mm 5 mps 765 mmHg 43%
    11:00 +21°C° 0 mm 5 mps 765 mmHg 38%
    12:00 +21°C° 0 mm 5 mps 765 mmHg 38%
    13:00 +22°C° 0 mm 5 mps 764 mmHg 38%
    14:00 +22°C° 0 mm 4 mps 764 mmHg 39%
    15:00 +21°C° 0 mm 4 mps 764 mmHg 45%
    16:00 +20°C° 0 mm 4 mps 764 mmHg 51%
    17:00 +19°C° 0 mm 4 mps 764 mmHg 58%
    18:00 +17°C° 0 mm 4 mps 764 mmHg 68%
    19:00 +14°C° 0 mm 4 mps 765 mmHg 79%
    20:00 +12°C° 0 mm 4 mps 765 mmHg 89%
    21:00 +12°C° 0 mm 4 mps 765 mmHg 90%
    22:00 +12°C° 0 mm 5 mps 765 mmHg 91%
    23:00 +12°C° 0 mm 5 mps 765 mmHg 93%
    Show more